Probability
13 10 13 6 10 6 10 10 13 10 10 6 6 6 6 3 3 3 3 6 6 6 3 3 3 0 3 6 6 3 6 3 0 0 0 0 0 0 0 0 0 0 0
13 13 10 13 10 10 16 16 16 13 13 6 10 10 6 6 6 10 10 10 6 6 6 3 3 6 6 3 3 3 3 3 0 0 0 0 0 0 0 0 0 0 0
19 16 13 10 10 13 10 19 16 10 10 6 13 13 6 6 10 10 10 13 10 10 13 13 13 13 13 10 6 3 3 0 0 0 0 0 0 0 0 0 0 0 0
19 13 13 13 13 10 6 6 10 10 6 6 10 10 13 13 10 6 6 10 6 6 13 13 13 13 13 10 6 3 3 0 0 0 0 0 0 0 0 0 0 0 0
13 13 13 16 16 10 10 6 10 6 6 10 6 10 10 10 3 6 10 10 6 6 10 13 13 13 10 6 3 3 3 0 0 0 0 0 0 0 0 0 0 0 0
10 10 13 13 16 13 10 10 10 6 3 3 6 6 13 10 10 10 10 10 10 10 10 10 10 10 6 6 6 3 3 3 0 0 0 0 0 0 0 0 0 0 0
10 10 10 23 19 10 10 10 10 6 6 6 6 10 10 13 13 13 13 10 10 6 6 10 6 10 6 6 6 6 3 3 0 0 0 0 0 0 0 0 0 0 0
6 10 13 13 16 13 10 10 10 6 6 6 10 10 6 6 13 10 10 10 10 6 6 6 6 6 3 3 3 6 6 3 0 0 0 0 0 0 0 0 0 0 0
6 10 10 10 6 6 6 6 6 6 6 10 10 10 10 10 10 6 6 3 3 3 3 6 3 3 3 3 3 3 3 3 3 0 0 0 0 0 0 0 0 0 0
6 10 6 3 0 0 0 6 6 6 6 10 6 6 10 10 6 3 3 3 3 3 3 3 3 3 3 3 3 3 3 3 3 3 0 0 0 0 0 0 0 0 0
6 6 6 0 0 0 0 3 3 6 6 6 6 6 10 3 3 3 3 3 3 3 3 3 3 3 3 3 3 3 3 3 3 3 3 0 0 0 0 0 0 0 0
6 6 6 0 0 0 0 0 3 6 6 6 6 3 3 3 3 3 3 3 3 3 3 3 3 3 3 3 3 3 3 3 3 3 3 3 0 0 0 0 0 0 0
3 3 0 0 0 0 0 0 0 0 6 6 6 3 3 3 3 3 3 3 3 3 3 3 3 3 3 3 3 3 3 3 3 3 3 3 3 0 0 0 0 0 0
3 3 3 3 0 0 0 0 0 0 6 6 3 3 3 3 3 3 3 3 3 3 3 3 3 3 3 3 3 3 3 3 3 3 3 3 3 0 0 0 0 0 0
3 0 3 0 0 0 0 0 0 0 0 0 0 0 0 0 0 0 3 3 3 3 3 3 3 3 3 0 0 0 0 3 3 3 3 3 0 0 0 0 0 0 0
0 0 0 0 0 0 0 0 0 0 0 0 0 0 0 0 0 0 0 0 0 0 0 0 0 0 0 0 0 0 0 0 0 0 0 0 0 0 0 0 0 0 0
0 0 0 0 0 0 0 0 0 0 0 0 0 0 0 0 0 0 0 0 0 0 0 0 0 0 0 0 0 0 0 0 0 0 0 0 0 0 0 0 0 0 0
0 0 0 0 0 0 0 0 0 0 0 0 0 0 0 0 0 0 0 0 0 0 0 0 0 0 0 0 0 0 0 0 0 0 0 0 0 0 0 0 0 0 0
0 0 0 0 0 0 0 0 0 0 0 0 0 0 0 0 0 0 0 0 0 0 0 0 0 0 0 0 0 0 0 0 0 0 0 0 0 0 0 0 0 0 0
0 0 0 0 0 0 0 0 0 0 0 0 0 0 0 0 0 0 0 0 0 0 0 0 0 0 0 0 0 0 0 0 0 0 0 0 0 0 0 0 0 0 0
0 0 0 0 0 0 0 0 0 0 0 0 0 0 0 0 0 0 0 0 0 0 0 0 0 0 0 0 0 0 0 0 0 0 0 0 0 0 0 0 0 0 0
0 0 0 0 0 0 0 0 0 0 0 0 0 0 0 0 0 0 0 0 0 0 0 0 0 0 0 0 0 0 0 0 0 0 0 0 0 0 0 0 0 0 0
0 0 0 0 0 0 0 0 0 0 0 0 0 0 0 0 0 0 0 0 0 0 0 0 0 0 0 0 0 0 0 0 0 0 0 0 0 0 0 0 0 0 0
0 0 0 0 0 0 0 0 0 0 0 0 0 0 0 0 0 0 0 0 0 0 0 0 0 0 0 0 0 0 0 0 0 0 0 0 0 0 0 0 0 0 0
0 0 0 0 0 0 0 0 0 0 0 0 0 0 0 0 0 0 0 0 0 0 0 0 0 0 0 0 0 0 0 0 0 0 0 0 0 0 0 0 0 0 0
0 0 0 0 0 0 0 0 0 0 0 0 0 0 0 0 0 0 0 0 0 0 0 0 0 0 0 0 0 0 0 0 0 0 0 0 0 0 0 0 0 0 0
Height
5825 5824 5822 5820 5819 5818 5816 5814 5813 5811 5810 5809 5808 5807 5806 5805 5805 5804 5803 5803 5801 5799 5798 5797 5796 5794 5793 5791 5789 5787 5785 5784 5782 5781 5779 5778 5776 5775 5774 5773 5772 5772 5771
5820 5818 5817 5816 5815 5813 5811 5810 5808 5806 5805 5805 5804 5802 5802 5801 5800 5799 5799 5798 5796 5795 5794 5791 5790 5788 5787 5785 5783 5782 5780 5778 5776 5775 5773 5772 5771 5769 5768 5767 5766 5765 5764
5814 5813 5812 5811 5809 5807 5806 5804 5802 5802 5801 5800 5799 5798 5798 5797 5795 5794 5794 5793 5791 5790 5788 5786 5785 5783 5781 5780 5778 5776 5774 5772 5770 5768 5767 5766 5765 5763 5762 5760 5759 5758 5757
5809 5808 5807 5806 5804 5803 5801 5800 5799 5797 5796 5796 5795 5795 5794 5793 5791 5789 5788 5788 5786 5784 5782 5781 5780 5778 5776 5774 5772 5770 5768 5766 5763 5761 5760 5759 5758 5757 5756 5754 5752 5751 5750
5805 5804 5802 5800 5799 5797 5796 5795 5794 5793 5792 5791 5790 5789 5789 5788 5787 5785 5784 5783 5781 5779 5778 5776 5774 5773 5771 5769 5767 5764 5762 5760 5757 5756 5754 5752 5751 5749 5749 5748 5746 5744 5743
5799 5798 5796 5794 5793 5792 5791 5790 5789 5788 5787 5786 5785 5784 5784 5782 5782 5781 5779 5778 5776 5774 5772 5771 5769 5768 5766 5764 5761 5759 5756 5754 5752 5749 5747 5746 5744 5742 5741 5740 5739 5738 5736
5793 5792 5791 5789 5788 5787 5785 5785 5784 5783 5782 5781 5780 5779 5778 5777 5776 5775 5774 5772 5771 5769 5767 5765 5764 5762 5760 5758 5755 5752 5750 5748 5746 5743 5741 5739 5737 5735 5734 5733 5731 5730 5729
5788 5787 5785 5784 5782 5781 5780 5780 5778 5777 5776 5776 5774 5773 5772 5771 5770 5769 5767 5765 5764 5763 5761 5760 5758 5756 5754 5751 5749 5747 5744 5742 5740 5737 5735 5733 5731 5729 5727 5726 5724 5723 5721
5783 5782 5780 5778 5777 5776 5775 5773 5773 5772 5770 5770 5769 5768 5767 5765 5764 5762 5761 5760 5758 5757 5755 5754 5752 5750 5748 5745 5743 5741 5738 5736 5734 5731 5729 5727 5724 5722 5720 5718 5717 5715 5714
5779 5777 5775 5773 5772 5771 5769 5768 5766 5766 5765 5764 5763 5762 5761 5760 5758 5757 5755 5754 5753 5751 5749 5748 5746 5744 5742 5739 5736 5734 5732 5730 5727 5725 5723 5720 5718 5715 5713 5711 5709 5707 5706
5774 5772 5770 5768 5767 5766 5764 5763 5761 5760 5760 5759 5758 5757 5755 5754 5753 5751 5750 5749 5747 5745 5743 5741 5740 5738 5735 5733 5730 5728 5726 5724 5721 5718 5716 5714 5711 5708 5706 5704 5701 5699 5698
5769 5767 5765 5763 5762 5760 5760 5758 5757 5756 5754 5753 5752 5752 5750 5749 5747 5746 5744 5743 5741 5739 5737 5735 5734 5732 5730 5727 5725 5722 5720 5718 5715 5712 5709 5707 5704 5701 5699 5696 5694 5692 5689
5765 5763 5761 5759 5757 5756 5755 5754 5753 5752 5750 5749 5747 5746 5745 5744 5742 5741 5739 5737 5736 5734 5732 5730 5728 5726 5724 5722 5719 5716 5714 5711 5708 5706 5703 5700 5697 5694 5691 5688 5686 5684 5681
5761 5759 5757 5755 5754 5753 5752 5751 5750 5748 5747 5745 5744 5742 5741 5739 5737 5736 5734 5732 5730 5728 5726 5724 5722 5720 5718 5716 5714 5711 5708 5705 5702 5699 5696 5693 5689 5686 5683 5681 5678 5676 5673
5759 5757 5755 5753 5752 5750 5749 5748 5747 5745 5744 5742 5741 5739 5737 5735 5734 5732 5730 5728 5726 5723 5721 5719 5717 5715 5713 5711 5708 5705 5702 5699 5696 5693 5689 5686 5683 5679 5676 5673 5670 5668 5666
5756 5755 5753 5751 5750 5749 5748 5746 5745 5743 5741 5740 5738 5736 5735 5733 5731 5729 5727 5724 5722 5720 5718 5715 5713 5711 5708 5706 5703 5700 5697 5693 5690 5686 5683 5680 5676 5673 5670 5666 5663 5661 5658
5755 5753 5752 5750 5749 5747 5746 5745 5743 5741 5740 5738 5736 5734 5732 5730 5728 5726 5724 5721 5719 5716 5714 5712 5710 5707 5704 5701 5698 5695 5691 5688 5684 5681 5677 5674 5670 5666 5663 5660 5657 5654 5651
5753 5752 5750 5749 5747 5746 5744 5743 5741 5740 5738 5736 5734 5732 5730 5728 5726 5723 5721 5718 5716 5714 5711 5709 5706 5704 5700 5697 5694 5690 5686 5682 5679 5675 5672 5668 5664 5660 5657 5653 5650 5647 5644
5751 5750 5748 5747 5746 5744 5743 5741 5740 5738 5736 5734 5732 5730 5728 5726 5723 5721 5718 5716 5714 5711 5709 5706 5703 5700 5696 5693 5689 5685 5681 5677 5673 5670 5666 5662 5658 5654 5650 5647 5644 5641 5638
5749 5748 5746 5745 5744 5743 5741 5740 5738 5736 5735 5733 5730 5728 5726 5723 5721 5719 5716 5714 5711 5709 5706 5703 5699 5696 5692 5689 5685 5681 5677 5673 5669 5665 5660 5656 5652 5648 5644 5640 5637 5634 5631
5747 5746 5744 5743 5742 5741 5740 5738 5737 5735 5733 5731 5729 5726 5724 5722 5719 5717 5714 5712 5709 5706 5703 5700 5697 5693 5689 5685 5681 5676 5672 5668 5664 5659 5655 5650 5646 5642 5637 5634 5630 5627 5624
5744 5743 5742 5741 5740 5738 5737 5736 5735 5733 5731 5729 5727 5725 5722 5720 5717 5715 5712 5709 5707 5704 5701 5697 5694 5690 5685 5681 5677 5673 5668 5663 5659 5654 5649 5645 5641 5636 5632 5628 5624 5621 5618
5741 5740 5739 5738 5737 5736 5735 5733 5732 5731 5729 5727 5725 5723 5720 5717 5715 5712 5710 5707 5704 5701 5698 5694 5690 5686 5682 5678 5673 5669 5664 5659 5654 5649 5644 5640 5635 5631 5627 5623 5619 5615 5612
5738 5737 5737 5736 5735 5734 5732 5731 5730 5728 5727 5725 5723 5721 5718 5715 5712 5710 5707 5704 5702 5698 5695 5691 5687 5683 5679 5674 5670 5665 5660 5655 5650 5645 5640 5635 5631 5626 5622 5618 5614 5611 5607
5736 5735 5734 5733 5732 5731 5730 5729 5727 5726 5724 5722 5720 5718 5716 5713 5710 5708 5705 5702 5699 5695 5692 5688 5684 5680 5676 5671 5666 5661 5656 5651 5646 5640 5636 5631 5627 5622 5618 5614 5610 5605 5602
5733 5732 5731 5730 5729 5729 5727 5726 5725 5723 5721 5720 5718 5716 5713 5711 5708 5705 5703 5700 5697 5693 5689 5685 5681 5676 5672 5667 5662 5657 5652 5647 5642 5637 5632 5627 5622 5618 5614 5609 5605 5601 5597
Wind_Speed
21 21 21 21 21 21 21 21 21 20 21 22 22 21 20 19 19 19 20 20 21 21 21 22 22 22 22 22 22 23 24 24 24 24 24 24 24 25 24 24 25 24 24
21 21 21 20 21 21 22 21 21 20 20 20 20 20 19 19 19 19 19 21 21 21 21 21 22 22 22 22 22 23 24 24 25 25 24 25 25 25 25 25 25 25 25
20 20 20 20 21 22 21 20 20 18 18 18 19 18 18 18 18 19 19 20 20 21 21 21 21 21 21 22 24 24 24 24 25 25 25 24 24 25 25 25 25 25 26
20 20 21 22 22 22 20 19 19 19 19 19 19 18 18 19 19 20 21 21 20 21 21 22 22 21 22 23 23 24 24 24 24 24 25 25 25 25 25 26 26 27 27
22 22 22 22 23 22 21 19 20 20 19 19 20 20 20 19 19 21 21 22 22 22 22 21 21 22 23 24 24 24 24 24 24 24 25 25 26 26 26 26 27 27 27
22 22 22 23 23 22 21 20 20 20 20 20 20 21 20 20 20 21 21 22 21 21 21 21 21 22 23 23 23 23 24 24 23 24 24 25 25 25 25 25 26 26 26
21 22 23 22 22 22 21 20 20 20 20 20 21 21 21 22 22 22 22 22 22 22 22 22 22 22 22 23 23 23 24 24 24 24 24 24 24 24 24 24 25 25 25
19 21 22 21 21 21 20 20 20 21 21 21 21 21 21 22 22 22 23 23 22 22 22 22 22 22 23 23 23 23 23 23 23 23 23 23 23 24 24 24 24 25 25
19 20 20 20 20 20 19 20 21 21 20 21 21 21 21 21 21 22 22 21 21 22 22 22 22 23 23 23 23 23 22 22 23 23 23 23 23 23 24 24 25 25 25
19 19 19 18 19 19 19 19 19 19 20 20 20 20 20 20 21 20 20 21 21 22 22 21 22 23 23 23 23 22 22 22 23 23 24 24 24 24 24 24 25 25 25
20 19 18 18 18 18 18 18 18 18 18 19 20 19 19 20 20 20 20 20 21 21 22 21 22 22 22 22 23 22 22 23 24 24 24 24 25 25 25 25 26 27 27
20 20 19 18 18 17 17 17 17 18 18 17 18 18 18 19 20 20 20 20 21 21 21 21 21 22 22 22 22 22 23 24 25 25 25 25 26 26 26 27 27 28 27
19 18 17 17 16 16 16 16 15 17 17 17 17 18 18 19 19 19 19 20 20 20 20 21 21 22 21 21 21 22 24 24 25 26 26 27 27 27 27 27 27 27 28
16 16 15 15 14 15 15 14 14 14 15 15 16 17 17 17 17 17 18 18 19 19 19 21 21 21 21 21 22 23 23 24 25 25 26 26 27 27 27 27 27 27 27
14 14 14 13 13 13 13 12 12 13 13 14 15 16 15 15 15 16 16 17 17 18 18 18 19 20 20 21 22 23 23 24 24 25 25 26 26 26 26 27 27 26 26
13 13 13 12 12 12 11 11 11 11 13 14 13 13 14 14 14 15 16 16 16 16 16 17 18 19 20 21 22 22 23 23 24 24 25 26 26 26 27 26 26 25 25
13 13 12 11 11 10 10 10 11 12 12 13 13 13 13 14 15 16 16 16 15 15 16 17 17 18 19 20 21 21 22 23 24 24 24 25 26 26 26 25 25 25 25
12 12 11 10 11 11 10 11 12 12 12 13 13 12 12 13 14 15 15 16 16 15 15 16 18 19 19 21 22 22 22 23 23 24 24 25 26 25 25 24 25 25 25
11 10 10 11 11 10 11 11 11 11 12 12 13 13 13 13 14 15 15 16 16 16 16 17 19 19 20 21 22 22 22 23 23 24 25 25 25 25 25 24 24 23 23
11 11 11 11 11 11 11 11 11 11 12 12 13 14 14 14 14 15 15 15 15 16 17 18 19 20 21 22 22 22 22 23 24 25 25 25 25 25 24 24 23 23 22
11 11 12 12 12 12 12 12 11 12 12 13 13 14 14 14 14 15 14 15 16 17 17 18 20 21 22 22 22 22 23 24 24 25 25 25 25 24 24 24 23 23 22
12 12 12 12 12 12 12 12 12 12 13 13 14 14 14 14 15 15 15 16 16 17 18 19 20 21 22 22 22 23 24 24 24 24 25 24 24 24 23 23 23 23 23
12 12 12 12 12 12 13 12 12 12 12 13 14 14 14 15 15 15 16 16 17 18 19 20 21 21 22 22 23 24 24 25 25 24 24 24 24 23 23 23 23 23 22
11 11 11 11 12 12 11 11 11 12 12 13 13 14 14 15 15 16 17 17 18 19 20 20 21 22 22 22 23 24 25 25 25 25 24 24 23 23 23 23 23 22 22
11 11 11 12 11 11 11 11 12 12 12 13 13 14 14 15 16 16 17 17 18 19 20 21 21 22 22 23 23 24 25 25 25 25 24 23 23 23 23 23 23 22 22
12 11 11 11 11 11 11 11 12 12 12 13 13 14 14 15 16 16 17 17 18 19 20 21 22 22 23 23 23 24 24 24 24 24 23 23 23 24 24 24 23 22 22
Wind_Direction
286 289 290 291 294 296 295 292 287 285 285 288 287 284 285 286 284 284 284 284 286 287 285 285 285 287 287 288 290 290 289 289 287 286 286 285 284 281 280 279 277 275 273
284 285 286 288 290 292 291 287 284 281 285 287 289 287 287 286 284 286 284 284 283 284 287 286 284 285 287 289 291 291 291 289 287 286 285 284 283 283 282 280 278 276 274
284 284 285 285 286 289 292 289 284 284 285 283 284 288 286 288 287 285 287 289 288 286 288 287 289 289 291 291 292 292 293 291 288 287 286 285 284 283 282 281 278 277 276
284 285 285 284 285 291 293 289 286 285 284 283 284 288 288 290 290 289 291 292 290 288 291 287 289 290 290 291 293 293 293 292 290 288 288 286 284 283 280 280 279 278 277
282 283 283 283 286 289 290 287 285 286 286 287 288 289 291 293 292 292 293 292 288 290 292 290 290 291 292 292 292 295 295 295 292 290 289 287 285 284 282 280 280 279 278
283 283 285 284 286 286 285 284 287 289 288 290 290 290 291 291 290 291 290 292 291 294 295 294 294 293 294 295 294 295 297 297 295 293 292 290 288 285 285 282 281 280 279
285 286 286 287 287 286 285 283 287 287 287 287 287 288 289 289 289 289 290 293 293 294 294 295 295 296 296 295 296 296 298 298 297 295 293 292 290 288 287 285 283 281 280
288 288 291 293 292 289 285 284 285 286 284 286 287 287 288 290 291 290 291 294 293 294 294 295 298 297 297 298 296 297 299 299 299 297 295 294 292 289 288 287 286 285 284
291 291 294 293 292 289 287 286 285 283 284 285 286 288 290 289 290 291 291 293 294 294 293 295 298 299 298 298 297 297 300 301 300 299 298 297 295 293 291 289 288 287 285
291 294 297 296 292 290 289 287 284 283 284 285 286 290 291 291 291 291 291 292 292 293 292 295 298 301 301 300 300 298 301 302 302 300 298 296 295 294 292 290 289 287 285
295 295 297 297 294 292 293 293 289 287 287 287 288 288 291 291 291 291 293 294 294 295 295 295 299 301 302 302 301 300 302 303 303 301 299 298 298 295 294 292 291 288 287
297 294 295 298 297 296 295 292 289 289 288 289 291 289 291 292 293 292 295 297 297 297 298 297 298 300 301 303 303 302 303 304 303 302 300 298 298 296 295 294 292 290 288
300 299 299 300 301 302 299 295 294 293 294 294 293 293 294 296 295 294 298 300 299 298 299 299 300 300 300 302 303 303 303 303 303 302 301 300 298 297 295 295 293 290 288
306 307 308 309 308 309 306 300 299 299 301 301 299 298 299 301 301 301 302 303 301 301 302 302 301 301 301 303 304 304 306 305 304 304 304 303 302 300 297 296 294 292 289
313 313 315 316 314 312 310 306 303 304 306 308 307 306 307 307 307 308 308 308 308 308 307 307 306 305 305 306 306 306 307 306 306 306 306 305 304 303 301 299 297 294 291
317 316 316 319 316 314 313 311 312 313 312 313 312 312 312 311 310 310 314 315 312 311 312 312 310 309 310 310 310 309 309 308 309 308 307 306 305 303 302 302 300 298 295
318 319 318 320 321 318 316 316 317 321 321 320 319 317 317 315 312 314 318 318 317 316 315 313 313 313 314 314 314 313 312 312 313 311 309 308 308 306 305 303 301 299 296
314 316 318 320 321 318 317 315 317 321 322 323 324 319 318 320 318 319 320 321 321 321 320 318 318 318 318 318 317 317 315 315 315 315 314 313 311 310 307 305 303 301 299
310 312 312 314 319 320 320 318 318 321 323 325 324 318 318 318 319 321 321 322 325 325 321 320 320 321 321 322 322 320 320 320 320 318 316 315 314 312 310 307 305 303 301
305 307 310 312 315 317 319 320 319 321 324 324 323 323 324 322 322 324 325 326 329 329 326 324 325 326 327 326 326 326 324 323 321 320 319 317 316 315 313 311 310 307 304
304 306 307 309 309 311 315 318 318 319 322 324 324 325 328 326 326 328 329 330 330 330 329 329 329 330 330 330 329 328 327 325 324 322 321 320 318 316 314 312 311 310 309
303 303 303 305 308 310 314 316 318 320 321 323 323 325 327 326 327 329 328 328 329 330 330 330 330 331 332 332 331 330 328 327 325 324 323 322 321 319 317 316 314 311 311
300 298 299 301 306 311 313 313 316 318 319 321 323 327 329 328 328 329 329 327 328 330 331 332 332 332 332 333 332 331 330 330 329 328 327 326 324 322 321 319 318 316 313
299 298 295 297 302 307 310 314 315 316 318 321 322 325 327 328 329 328 327 328 330 331 333 333 333 333 333 334 334 335 333 332 331 330 330 330 328 327 325 323 321 319 317
295 296 294 296 298 303 309 311 313 314 316 319 321 324 327 327 328 329 328 329 331 332 333 334 335 335 335 335 336 336 336 335 334 333 333 332 330 329 328 327 325 323 320
296 297 296 298 301 304 308 310 311 312 315 318 320 322 325 326 327 328 328 330 332 333 334 336 336 336 336 336 336 337 338 337 336 336 336 335 333 332 331 330 330 329 327